Regional Weather Roundup
Issued by NWS Little Rock, AR

Home | Current Version | Previous Version | Graphics & Text | Print | Product List | Glossary On
Versions: 1 2 3 4 5 6 7 8 9 10 11 12 13 14 15 16 17 18 19 20 21 22 23 24 25 26 27 28 29 30 31 32 33 34 35 36 37 38 39 40 41 42 43 44 45 46 47 48 49 50
000
ASUS44 KLZK 291505
RWRLZK

WEATHER ROUNDUP FOR ARKANSAS
NATIONAL WEATHER SERVICE LITTLE ROCK AR
1000 AM CDT SAT APR 29 2017

NOTE: "FAIR" INDICATES FEW OR NO CLOUDS BELOW 12,000 FEET WITH NO
SIGNIFICANT WEATHER AND/OR OBSTRUCTIONS TO VISIBILITY.

ARZ001-003-010-029-291600-
NORTHWEST ARKANSAS

CITY           SKY/WX    TMP DP  RH WIND       PRES   REMARKS
FAYETTEVILLE   LGT RAIN  74  71  91 S21G31    29.63S
FORT SMITH     CLOUDY    80  68  66 S18G35    29.60F
HARRISON       CLOUDY    72  69  90 S17G25    29.70F
BENTONVILLE    CLOUDY    73  70  88 S20G26    29.62F
ROGERS         LGT RAIN  72  69  90 S13G21    29.64R
SILOAM SPGS    CLOUDY    73  68  83 S15G29    29.59R
HIGHFILL       CLOUDY    75  71  87 S25G38    29.60S
SPRINGDALE     CLOUDY    75  72  88 S15G23    29.65S
$$

ARZ004-005-016-291600-
NORTH CENTRAL ARKANSAS

CITY           SKY/WX    TMP DP  RH WIND       PRES   REMARKS
BATESVILLE     CLOUDY    79  70  73 SE12      29.81S
FLIPPIN        PTSUNNY  N/A N/A N/A S10G18    29.71R
MTN HOME       CLOUDY    73  69  87 SW10G17   29.75R
$$

ARZ040-041-291600-
WEST CENTRAL ARKANSAS

CITY           SKY/WX    TMP DP  RH WIND       PRES   REMARKS
MENA           MOSUNNY   79  77  94 SE10G30   29.67F
MOUNT IDA      MOSUNNY   79  70  74 S13G23    29.67F
$$

ARZ009-017-025-026-028-291600-
NORTHEAST ARKANSAS

CITY           SKY/WX    TMP DP  RH WIND       PRES   REMARKS
CORNING        FAIR      77  73  88 S17G25    29.85
JONESBORO      CLOUDY    76  69  79 S14       29.87R
NEWPORT        CLOUDY    77  71  82 MISG        N/A
WALNUT RIDGE   CLOUDY    79  68  69 S24       29.83F
BLYTHEVILLE    CLOUDY    78  69  73 S15       29.92R
$$

ARZ022-023-033-042-044-291600-
CENTRAL ARKANSAS

CITY           SKY/WX    TMP DP  RH WIND       PRES   REMARKS
LITTLE ROCK    CLOUDY    78  72  81 S14G28    29.77F
N LITTLE ROCK    N/A     78  71  80 S12G26    29.76F
JACKSONVILLE   PTSUNNY   78  72  79 SE15G21   29.77F
CONWAY           N/A     81  72  74 S16G26    29.73R
SEARCY         CLOUDY    79  72  79 S17G24    29.81F
HOT SPRINGS    CLOUDY    78  71  79 SE12G17   29.75F
RUSSELLVILLE   CLOUDY    79  68  69 S8G17     29.71R
CLINTON        CLOUDY    75  72  88 SE10      29.77R HAZE
$$

ARZ036-291600-
EAST ARKANSAS

CITY           SKY/WX    TMP DP  RH WIND       PRES   REMARKS
WEST MEMPHIS   CLOUDY    78  71  79 S20G29    29.87R
$$

ARZ050-053-066-070-073-291600-
SOUTHWEST ARKANSAS

CITY           SKY/WX    TMP DP  RH WIND       PRES   REMARKS
ARKADELPHIA    CLOUDY    79  72  79 S9G17     29.74F
CAMDEN         PTSUNNY   81  68  65 SE12G18   29.76F
TEXARKANA      CLOUDY    78  72  81 SE16G23   29.70F
EL DORADO      CLOUDY    79  72  79 SE12      29.77F
DE QUEEN       CLOUDY    77  72  84 S7        29.66F
$$

ARZ056-057-069-291600-
SOUTHEAST ARKANSAS

CITY           SKY/WX    TMP DP  RH WIND       PRES   REMARKS
PINE BLUFF     CLOUDY    79  70  74 S24G30    29.79F
STUTTGART      CLOUDY    79  63  57 S22       29.82R
MONTICELLO     CLOUDY    79  70  74 S14G22    29.82F

$$





USA.gov is the U.S. government's official web portal to all federal, state and local government web resources and services.